Orbital Elements at Epoch 2459000.5 (2020-May-31.0) TDB
Reference: JPL 34 (heliocentric ecliptic J2000)
Element | Value | Uncertainty (1-sigma) | Units |
e | .09856067511565436 | 3.2106e-08 | |
a | 2.757898467073645 | 1.164e-08 | au |
q | 2.486078132258438 | 9.2117e-08 | au |
i | 4.428111237911257 | 4.2746e-06 | deg |
node | 43.21368369135557 | 4.3079e-05 | deg |
peri | 278.5135570171302 | 4.9022e-05 | deg |
M | 274.3365654536077 | 2.521e-05 | deg |
tp | 2459398.569422777302 (2021-Jul-03.06942278) | 0.00011789 | TDB |
period | 1672.884036913321 4.58 | 1.0591e-05 2.9e-08 | d yr |
n | .2151972235112272 | 1.3624e-09 | deg/d |
Q | 3.029718801888852 | 1.2788e-08 | au |
|
| | Orbit Determination Parameters
Additional Information
|